RH
12 10 9 8 7 7 6 6 5 4 4 3 4 4 5 5 6 6 6 6 6 5 5 6 7 7 8 8 7 7 13 14 13 12 15 12 12 13 15 16 17 19 20 21 21
21 19 18 16 13 10 7 6 5 5 4 4 5 6 7 7 7 6 6 6 6 6 6 8 9 8 9 9 8 9 12 14 14 13 14 11 13 14 14 15 17 18 19 20 19
21 21 20 20 20 18 17 16 14 12 11 11 10 10 9 7 8 7 6 6 5 5 5 6 8 9 9 9 9 9 12 11 12 11 12 13 15 15 17 19 18 18 18 19 19
20 19 18 19 19 18 18 18 18 18 18 17 16 14 13 12 14 10 9 8 7 7 8 9 9 9 9 11 9 11 10 10 13 11 11 14 15 15 17 19 19 18 17 17 17
24 19 17 16 17 18 18 18 18 17 15 14 13 13 12 14 14 12 11 10 10 9 9 9 10 10 11 11 10 10 14 12 13 12 13 14 16 16 17 18 18 18 18 18 18
28 23 19 17 14 13 12 12 12 12 12 11 10 10 10 12 12 11 11 11 11 13 13 13 14 13 13 13 13 14 13 12 12 13 14 15 16 16 18 18 18 18 18 18 18
30 27 23 20 17 15 15 14 13 12 11 10 10 11 11 11 9 9 9 9 10 11 12 11 11 13 12 13 11 12 12 15 15 17 18 18 21 20 19 19 19 19 19 19 19
33 30 27 24 21 19 18 17 16 16 16 16 15 17 18 15 14 14 13 13 13 12 12 12 13 13 14 14 15 15 15 16 17 17 17 18 19 23 22 22 22 21 20 20 20
35 33 30 27 26 24 22 21 21 22 22 22 22 23 24 21 20 18 17 17 18 17 16 16 18 19 18 18 18 18 19 19 20 18 19 20 22 24 23 23 23 22 21 20 20
39 35 33 31 29 28 27 26 25 26 26 26 27 28 26 26 23 22 22 22 22 22 23 22 22 24 21 21 27 23 22 21 21 21 21 21 21 22 22 23 23 22 22 21 21
48 41 37 35 33 32 31 30 31 33 29 29 30 30 31 30 30 28 27 26 26 26 27 23 26 26 26 27 26 26 25 25 24 24 24 23 22 21 23 23 24 23 23 22 22
68 56 46 41 38 35 34 33 33 32 35 35 35 35 35 35 34 32 30 29 28 29 26 28 30 30 29 28 28 27 28 29 27 27 26 24 22 21 22 23 24 25 24 23 23
68 65 62 54 47 43 40 38 37 37 41 43 42 42 40 39 36 34 32 31 31 30 31 32 34 32 31 31 32 32 33 33 32 30 25 25 25 22 22 24 25 25 25 24 24
71 68 62 58 55 51 50 50 54 59 62 55 48 45 44 43 41 37 36 35 34 34 34 35 35 35 36 36 36 38 35 36 35 36 43 30 34 20 25 26 26 26 26 25 25
69 68 66 60 58 55 53 53 55 67 86 62 53 49 48 45 44 44 42 42 43 42 41 44 43 44 45 44 41 41 37 34 34 39 41 34 38 26 27 28 28 26 26 25 25
59 58 60 58 52 49 55 57 61 80 86 60 54 53 51 48 46 44 43 43 44 47 47 49 48 46 44 41 38 37 34 34 36 43 60 42 35 32 30 30 29 27 27 26 25
58 59 61 64 58 52 52 59 72 82 63 58 57 54 56 56 55 55 51 50 57 59 59 52 47 45 44 43 39 38 42 62 67 70 59 32 38 35 39 35 31 29 29 29 27
57 51 51 57 56 52 49 53 72 69 65 56 54 53 52 52 51 55 58 63 60 55 55 58 60 49 43 44 47 45 51 57 62 62 51 36 45 37 40 35 33 33 31 31 31
67 58 62 65 63 60 62 69 65 60 58 58 63 66 64 62 61 60 58 62 64 60 63 62 55 50 46 44 43 47 53 47 55 42 57 38 37 43 41 39 37 38 37 35 33
74 69 72 69 60 61 64 66 63 60 65 66 68 63 59 57 59 58 60 61 64 58 58 65 62 49 49 45 44 50 46 58 61 60 69 48 45 49 51 48 45 44 42 41 41
84 76 70 68 62 54 56 54 56 61 64 74 73 63 61 59 61 62 59 59 58 57 57 55 59 55 50 54 53 51 54 54 57 64 72 66 51 45 50 51 49 46 44 42 42
87 87 79 76 70 64 63 66 63 61 72 75 68 63 61 62 62 58 59 58 58 59 62 60 66 66 54 58 56 60 60 59 70 63 64 64 43 45 52 51 49 45 45 45 46
87 75 78 77 74 71 65 59 65 63 66 69 71 67 65 62 66 65 63 66 68 66 64 61 67 70 58 65 62 63 62 65 69 72 71 87 62 45 41 43 48 53 56 61 62
89 82 72 71 75 82 75 62 64 66 72 77 76 72 68 69 71 72 73 73 70 65 65 62 67 65 54 63 64 66 63 64 69 72 64 59 57 48 50 60 66 70 70 71 77
91 88 88 89 77 87 93 90 76 72 79 79 75 73 76 82 85 82 77 77 72 69 69 71 77 70 64 63 70 68 69 70 76 72 81 60 71 66 73 72 74 85 87 86 88
92 89 98 90 87 91 95 93 87 76 83 80 81 82 83 95 92 92 81 72 73 73 74 75 78 77 72 72 68 66 66 67 60 60 60 61 70 73 77 73 82 84 83 87 87
90 91 93 94 87 91 91 92 84 86 91 92 92 95 96 91 91 91 87 81 76 77 76 81 85 88 70 74 70 70 56 54 55 58 65 75 76 76 72 72 74 75 78 80 80